Location: Zagreb
(45.8000°N, 16.0000°E)
Time: 17:58:17
(UTC+01:00)

Vanguard 2 Rocket - Pass Details

Date: 21 December 2025
Orbit: 553 x 3287 km, 32.9° (Epoch: 17 January)

Event Time Altitude Azimuth Distance (km) Brightness Sun altitude
Rises 02:44:12 0° 174° (S) 6,113 11.0 -49.1°
Reaches altitude 10° 02:51:54 10° 150° (SSE) 5,662 11.0 -47.9°
Maximum altitude 02:58:22 13° 128° (SE) 5,728 11.2 -46.8°
Drops below altitude 10° 03:05:17 10° 107° (ESE) 6,190 11.6 -45.6°
Sets 03:14:35 0° 86° (E) 7,237 12.3 -44.0°
